Time,TemperatureF,DewpointF,PressureIn,WindDirection,WindDirectionDegrees,WindSpeedMPH,WindSpeedGustMPH,Humidity,HourlyPrecipIn,Conditions,Clouds,dailyrainin,SolarRadiationWatts/m^2,SoftwareType,DateUTC
2013-02-17 00:01:00,72.0,53.0,-100.00,ENE,77,25.0,44.0,51,0.00,,,0.00,0.000000,,2013-02-17 10:01:00,
2013-02-17 00:11:00,72.0,53.0,-100.00,ENE,77,25.0,44.0,51,0.00,,,0.00,0.000000,,2013-02-17 10:11:00,
2013-02-17 00:21:00,72.0,53.0,-100.00,ENE,77,25.0,44.0,51,0.00,,,0.00,0.000000,,2013-02-17 10:21:00,
2013-02-17 00:42:00,72.0,52.0,-100.00,ENE,76,25.0,44.0,50,0.00,,,-99.99,0.000000,,2013-02-17 10:42:00,
2013-02-17 00:52:00,72.0,52.0,-100.00,ENE,76,25.0,44.0,50,0.00,,,-99.99,0.000000,,2013-02-17 10:52:00,
2013-02-17 01:01:00,72.0,52.0,-100.00,ENE,76,25.0,44.0,50,0.00,,,-99.99,0.000000,,2013-02-17 11:01:00,
2013-02-17 01:11:00,72.0,52.0,-100.00,ENE,76,25.0,44.0,50,0.00,,,-99.99,0.000000,,2013-02-17 11:11:00,
2013-02-17 01:21:00,72.0,52.0,-100.00,ENE,76,25.0,44.0,50,0.00,,,-99.99,0.000000,,2013-02-17 11:21:00,
2013-02-17 01:42:00,72.0,49.0,-100.00,ENE,72,25.0,40.0,44,0.00,,,0.00,0.000000,,2013-02-17 11:42:00,
2013-02-17 01:52:00,72.0,49.0,-100.00,ENE,72,25.0,40.0,44,0.00,,,0.00,0.000000,,2013-02-17 11:52:00,
2013-02-17 02:02:00,72.0,49.0,-100.00,ENE,72,25.0,40.0,44,0.00,,,0.00,0.000000,,2013-02-17 12:02:00,
2013-02-17 02:11:00,72.0,49.0,-100.00,ENE,72,25.0,40.0,44,0.00,,,0.00,0.000000,,2013-02-17 12:11:00,
2013-02-17 02:22:00,72.0,49.0,-100.00,ENE,72,25.0,40.0,44,0.00,,,0.00,0.000000,,2013-02-17 12:22:00,
2013-02-17 02:42:00,72.0,46.0,-100.00,ENE,74,22.0,39.0,39,0.00,,,-99.99,0.000000,,2013-02-17 12:42:00,
2013-02-17 02:52:00,72.0,46.0,-100.00,ENE,74,22.0,39.0,39,0.00,,,-99.99,0.000000,,2013-02-17 12:52:00,
2013-02-17 03:02:00,72.0,46.0,-100.00,ENE,74,22.0,39.0,39,0.00,,,-99.99,0.000000,,2013-02-17 13:02:00,
2013-02-17 03:11:00,72.0,46.0,-100.00,ENE,74,22.0,39.0,39,0.00,,,-99.99,0.000000,,2013-02-17 13:11:00,
2013-02-17 03:21:00,72.0,46.0,-100.00,ENE,74,22.0,39.0,39,0.00,,,-99.99,0.000000,,2013-02-17 13:21:00,
2013-02-17 03:42:00,72.0,49.0,-100.00,ENE,74,22.0,40.0,44,0.00,,,-99.99,0.000000,,2013-02-17 13:42:00,
2013-02-17 03:52:00,72.0,49.0,-100.00,ENE,74,22.0,40.0,44,0.00,,,-99.99,0.000000,,2013-02-17 13:52:00,
2013-02-17 04:01:00,72.0,49.0,-100.00,ENE,74,22.0,40.0,44,0.00,,,-99.99,0.000000,,2013-02-17 14:01:00,
2013-02-17 04:11:00,72.0,49.0,-100.00,ENE,74,22.0,40.0,44,0.00,,,-99.99,0.000000,,2013-02-17 14:11:00,
2013-02-17 04:21:00,72.0,49.0,-100.00,ENE,74,22.0,40.0,44,0.00,,,-99.99,0.000000,,2013-02-17 14:21:00,
2013-02-17 04:42:00,72.0,49.0,-100.00,East,80,23.0,40.0,44,0.00,,,0.00,0.000000,,2013-02-17 14:42:00,
2013-02-17 04:53:00,72.0,49.0,-100.00,East,80,23.0,40.0,44,0.00,,,0.00,0.000000,,2013-02-17 14:53:00,
2013-02-17 05:01:00,72.0,49.0,-100.00,East,80,23.0,40.0,44,0.00,,,0.00,0.000000,,2013-02-17 15:01:00,
2013-02-17 05:11:00,72.0,49.0,-100.00,East,80,23.0,40.0,44,0.00,,,0.00,0.000000,,2013-02-17 15:11:00,
2013-02-17 05:21:00,72.0,49.0,-100.00,East,80,23.0,40.0,44,0.00,,,0.00,0.000000,,2013-02-17 15:21:00,
2013-02-17 05:42:00,72.0,51.0,-100.00,ENE,67,25.0,45.0,48,0.00,,,0.00,0.000000,,2013-02-17 15:42:00,
2013-02-17 05:52:00,72.0,51.0,-100.00,ENE,67,25.0,45.0,48,0.00,,,0.00,0.000000,,2013-02-17 15:52:00,
2013-02-17 06:01:00,72.0,51.0,-100.00,ENE,67,25.0,45.0,48,0.00,,,0.00,0.000000,,2013-02-17 16:01:00,
2013-02-17 06:11:00,72.0,51.0,-100.00,ENE,67,25.0,45.0,48,0.00,,,0.00,0.000000,,2013-02-17 16:11:00,
2013-02-17 06:21:00,72.0,51.0,-100.00,ENE,67,25.0,45.0,48,0.00,,,0.00,0.000000,,2013-02-17 16:21:00,
2013-02-17 06:42:00,71.0,50.0,-100.00,ENE,69,25.0,49.0,47,0.00,,,0.00,0.000000,,2013-02-17 16:42:00,
2013-02-17 06:52:00,71.0,50.0,-100.00,ENE,69,25.0,49.0,47,0.00,,,0.00,0.000000,,2013-02-17 16:52:00,
2013-02-17 07:02:00,71.0,50.0,-100.00,ENE,69,25.0,49.0,47,0.00,,,0.00,0.000000,,2013-02-17 17:02:00,
2013-02-17 07:11:00,71.0,50.0,-100.00,ENE,69,25.0,49.0,47,0.00,,,0.00,0.000000,,2013-02-17 17:11:00,
2013-02-17 07:21:00,71.0,50.0,-100.00,ENE,69,25.0,49.0,47,0.00,,,0.00,0.000000,,2013-02-17 17:21:00,
2013-02-17 07:42:00,71.0,50.0,-100.00,East,88,26.0,44.0,47,0.00,,,0.00,1.000000,,2013-02-17 17:42:00,
2013-02-17 07:52:00,71.0,50.0,-100.00,East,88,26.0,44.0,47,0.00,,,0.00,1.000000,,2013-02-17 17:52:00,
2013-02-17 08:01:00,71.0,50.0,-100.00,East,88,26.0,44.0,47,0.00,,,0.00,1.000000,,2013-02-17 18:01:00,
2013-02-17 08:11:00,71.0,50.0,-100.00,East,88,26.0,44.0,47,0.00,,,0.00,1.000000,,2013-02-17 18:11:00,
2013-02-17 08:21:00,71.0,50.0,-100.00,East,88,26.0,44.0,47,0.00,,,0.00,1.000000,,2013-02-17 18:21:00,
2013-02-17 08:42:00,72.0,48.0,-100.00,East,80,23.0,40.0,43,0.00,,,0.00,115.000000,,2013-02-17 18:42:00,
2013-02-17 08:52:00,72.0,48.0,-100.00,East,80,23.0,40.0,43,0.00,,,0.00,115.000000,,2013-02-17 18:52:00,
2013-02-17 09:01:00,72.0,48.0,-100.00,East,80,23.0,40.0,43,0.00,,,0.00,115.000000,,2013-02-17 19:01:00,
2013-02-17 09:11:00,72.0,48.0,-100.00,East,80,23.0,40.0,43,0.00,,,0.00,115.000000,,2013-02-17 19:11:00,
2013-02-17 09:21:00,72.0,48.0,-100.00,East,80,23.0,40.0,43,0.00,,,0.00,115.000000,,2013-02-17 19:21:00,
2013-02-17 09:42:00,75.0,50.0,-100.00,East,79,21.0,38.0,41,0.00,,,0.00,349.000000,,2013-02-17 19:42:00,
2013-02-17 09:52:00,75.0,50.0,-100.00,East,79,21.0,38.0,41,0.00,,,0.00,349.000000,,2013-02-17 19:52:00,
2013-02-17 10:01:00,75.0,50.0,-100.00,East,79,21.0,38.0,41,0.00,,,0.00,349.000000,,2013-02-17 20:01:00,
2013-02-17 10:11:00,75.0,50.0,-100.00,East,79,21.0,38.0,41,0.00,,,0.00,349.000000,,2013-02-17 20:11:00,
2013-02-17 10:21:00,75.0,50.0,-100.00,East,79,21.0,38.0,41,0.00,,,0.00,349.000000,,2013-02-17 20:21:00,
2013-02-17 10:42:00,77.0,52.0,-100.00,East,93,17.0,36.0,42,0.00,,,0.00,578.000000,,2013-02-17 20:42:00,
2013-02-17 10:52:00,77.0,52.0,-100.00,East,93,17.0,36.0,42,0.00,,,0.00,578.000000,,2013-02-17 20:52:00,
2013-02-17 11:01:00,77.0,52.0,-100.00,East,93,17.0,36.0,42,0.00,,,0.00,578.000000,,2013-02-17 21:01:00,
2013-02-17 11:11:00,77.0,52.0,-100.00,East,93,17.0,36.0,42,0.00,,,0.00,578.000000,,2013-02-17 21:11:00,
2013-02-17 11:21:00,77.0,52.0,-100.00,East,93,17.0,36.0,42,0.00,,,0.00,578.000000,,2013-02-17 21:21:00,
2013-02-17 11:53:00,79.0,55.0,-100.00,East,80,21.0,40.0,44,0.00,,,0.00,749.000000,,2013-02-17 21:53:00,
2013-02-17 12:01:00,79.0,55.0,-100.00,East,80,21.0,40.0,44,0.00,,,0.00,749.000000,,2013-02-17 22:01:00,
2013-02-17 12:11:00,79.0,55.0,-100.00,East,80,21.0,40.0,44,0.00,,,0.00,749.000000,,2013-02-17 22:11:00,
2013-02-17 12:21:00,79.0,55.0,-100.00,East,80,21.0,40.0,44,0.00,,,0.00,749.000000,,2013-02-17 22:21:00,
2013-02-17 12:42:00,80.0,52.0,-100.00,East,87,20.0,39.0,38,0.00,,,0.00,820.000000,,2013-02-17 22:42:00,
2013-02-17 12:52:00,80.0,52.0,-100.00,East,87,20.0,39.0,38,0.00,,,0.00,820.000000,,2013-02-17 22:52:00,
2013-02-17 13:02:00,80.0,52.0,-100.00,East,87,20.0,39.0,38,0.00,,,0.00,820.000000,,2013-02-17 23:02:00,
2013-02-17 13:11:00,80.0,52.0,-100.00,East,87,20.0,39.0,38,0.00,,,0.00,820.000000,,2013-02-17 23:11:00,
2013-02-17 13:21:00,80.0,52.0,-100.00,East,87,20.0,39.0,38,0.00,,,0.00,820.000000,,2013-02-17 23:21:00,
2013-02-17 13:42:00,80.0,55.0,-100.00,ENE,73,25.0,43.0,43,0.00,,,0.00,887.000000,,2013-02-17 23:42:00,
2013-02-17 13:52:00,80.0,55.0,-100.00,ENE,73,25.0,43.0,43,0.00,,,0.00,887.000000,,2013-02-17 23:52:00,
2013-02-17 14:01:00,80.0,55.0,-100.00,ENE,73,25.0,43.0,43,0.00,,,0.00,887.000000,,2013-02-18 00:01:00,
2013-02-17 14:11:00,80.0,55.0,-100.00,ENE,73,25.0,43.0,43,0.00,,,0.00,887.000000,,2013-02-18 00:11:00,
2013-02-17 14:22:00,80.0,55.0,-100.00,ENE,73,25.0,43.0,43,0.00,,,0.00,887.000000,,2013-02-18 00:22:00,
2013-02-17 14:42:00,80.0,54.0,-100.00,ENE,77,26.0,45.0,41,0.00,,,0.00,820.000000,,2013-02-18 00:42:00,
2013-02-17 14:52:00,80.0,54.0,-100.00,ENE,77,26.0,45.0,41,0.00,,,0.00,820.000000,,2013-02-18 00:52:00,
2013-02-17 15:01:00,80.0,54.0,-100.00,ENE,77,26.0,45.0,41,0.00,,,0.00,820.000000,,2013-02-18 01:01:00,
2013-02-17 15:11:00,80.0,54.0,-100.00,ENE,77,26.0,45.0,41,0.00,,,0.00,820.000000,,2013-02-18 01:11:00,
2013-02-17 15:21:00,80.0,54.0,-100.00,ENE,77,26.0,45.0,41,0.00,,,0.00,820.000000,,2013-02-18 01:21:00,
2013-02-17 15:42:00,80.0,53.0,-100.00,ENE,72,28.0,47.0,40,0.00,,,0.00,771.000000,,2013-02-18 01:42:00,
2013-02-17 15:52:00,80.0,53.0,-100.00,ENE,72,28.0,47.0,40,0.00,,,0.00,771.000000,,2013-02-18 01:52:00,
2013-02-17 16:01:00,80.0,53.0,-100.00,ENE,72,28.0,47.0,40,0.00,,,0.00,771.000000,,2013-02-18 02:01:00,
2013-02-17 16:11:00,80.0,53.0,-100.00,ENE,72,28.0,47.0,40,0.00,,,0.00,771.000000,,2013-02-18 02:11:00,
2013-02-17 16:21:00,80.0,53.0,-100.00,ENE,72,28.0,47.0,40,0.00,,,0.00,771.000000,,2013-02-18 02:21:00,
2013-02-17 16:42:00,78.0,54.0,-100.00,ENE,69,30.0,47.0,43,0.00,,,0.00,607.000000,,2013-02-18 02:42:00,
2013-02-17 16:52:00,78.0,54.0,-100.00,ENE,69,30.0,47.0,43,0.00,,,0.00,607.000000,,2013-02-18 02:52:00,
2013-02-17 17:01:00,78.0,54.0,-100.00,ENE,69,30.0,47.0,43,0.00,,,0.00,607.000000,,2013-02-18 03:01:00,
2013-02-17 17:11:00,78.0,54.0,-100.00,ENE,69,30.0,47.0,43,0.00,,,0.00,607.000000,,2013-02-18 03:11:00,
2013-02-17 17:21:00,78.0,54.0,-100.00,ENE,69,30.0,47.0,43,0.00,,,0.00,607.000000,,2013-02-18 03:21:00,
2013-02-17 17:42:00,77.0,55.0,-100.00,ENE,70,29.0,46.0,47,0.00,,,0.00,392.000000,,2013-02-18 03:42:00,
2013-02-17 17:52:00,77.0,55.0,-100.00,ENE,70,29.0,46.0,47,0.00,,,0.00,392.000000,,2013-02-18 03:52:00,
2013-02-17 18:01:00,77.0,55.0,-100.00,ENE,70,29.0,46.0,47,0.00,,,0.00,392.000000,,2013-02-18 04:01:00,
2013-02-17 18:11:00,77.0,55.0,-100.00,ENE,70,29.0,46.0,47,0.00,,,0.00,392.000000,,2013-02-18 04:11:00,
2013-02-17 18:21:00,77.0,55.0,-100.00,ENE,70,29.0,46.0,47,0.00,,,0.00,392.000000,,2013-02-18 04:21:00,
2013-02-17 18:42:00,74.0,55.0,-100.00,ENE,76,27.0,48.0,51,0.00,,,0.00,150.000000,,2013-02-18 04:42:00,
2013-02-17 18:52:00,74.0,55.0,-100.00,ENE,76,27.0,48.0,51,0.00,,,0.00,150.000000,,2013-02-18 04:52:00,
2013-02-17 19:01:00,74.0,55.0,-100.00,ENE,76,27.0,48.0,51,0.00,,,0.00,150.000000,,2013-02-18 05:01:00,
2013-02-17 19:11:00,74.0,55.0,-100.00,ENE,76,27.0,48.0,51,0.00,,,0.00,150.000000,,2013-02-18 05:11:00,
2013-02-17 19:21:00,74.0,55.0,-100.00,ENE,76,27.0,48.0,51,0.00,,,0.00,150.000000,,2013-02-18 05:21:00,
2013-02-17 19:42:00,73.0,53.0,-100.00,ENE,78,23.0,45.0,49,0.00,,,0.00,4.000000,,2013-02-18 05:42:00,
2013-02-17 19:52:00,73.0,53.0,-100.00,ENE,78,23.0,45.0,49,0.00,,,0.00,4.000000,,2013-02-18 05:52:00,
2013-02-17 20:02:00,73.0,53.0,-100.00,ENE,78,23.0,45.0,49,0.00,,,0.00,4.000000,,2013-02-18 06:02:00,
2013-02-17 20:11:00,73.0,53.0,-100.00,ENE,78,23.0,45.0,49,0.00,,,0.00,4.000000,,2013-02-18 06:11:00,
2013-02-17 20:21:00,73.0,53.0,-100.00,ENE,78,23.0,45.0,49,0.00,,,0.00,4.000000,,2013-02-18 06:21:00,
2013-02-17 20:42:00,72.0,52.0,-100.00,ENE,74,22.0,39.0,50,0.00,,,0.00,0.000000,,2013-02-18 06:42:00,
2013-02-17 20:52:00,72.0,52.0,-100.00,ENE,74,22.0,39.0,50,0.00,,,0.00,0.000000,,2013-02-18 06:52:00,
2013-02-17 21:01:00,72.0,52.0,-100.00,ENE,74,22.0,39.0,50,0.00,,,0.00,0.000000,,2013-02-18 07:01:00,
2013-02-17 21:11:00,72.0,52.0,-100.00,ENE,74,22.0,39.0,50,0.00,,,0.00,0.000000,,2013-02-18 07:11:00,
2013-02-17 21:21:00,72.0,52.0,-100.00,ENE,74,22.0,39.0,50,0.00,,,0.00,0.000000,,2013-02-18 07:21:00,
2013-02-17 21:42:00,72.0,51.0,-100.00,ENE,78,11.0,34.0,48,0.00,,,0.00,0.000000,,2013-02-18 07:42:00,
2013-02-17 21:52:00,72.0,51.0,-100.00,ENE,78,11.0,34.0,48,0.00,,,0.00,0.000000,,2013-02-18 07:52:00,
2013-02-17 22:01:00,72.0,51.0,-100.00,ENE,78,11.0,34.0,48,0.00,,,0.00,0.000000,,2013-02-18 08:01:00,
2013-02-17 22:11:00,72.0,51.0,-100.00,ENE,78,11.0,34.0,48,0.00,,,0.00,0.000000,,2013-02-18 08:11:00,
2013-02-17 22:21:00,72.0,51.0,-100.00,ENE,78,11.0,34.0,48,0.00,,,0.00,0.000000,,2013-02-18 08:21:00,
2013-02-17 22:42:00,74.0,52.0,-100.00,South,187,11.0,24.0,46,0.00,,,0.00,0.000000,,2013-02-18 08:42:00,
2013-02-17 22:52:00,74.0,52.0,-100.00,South,187,11.0,24.0,46,0.00,,,0.00,0.000000,,2013-02-18 08:52:00,
2013-02-17 23:02:00,74.0,52.0,-100.00,South,187,11.0,24.0,46,0.00,,,0.00,0.000000,,2013-02-18 09:02:00,
2013-02-17 23:11:00,74.0,52.0,-100.00,South,187,11.0,24.0,46,0.00,,,0.00,0.000000,,2013-02-18 09:11:00,
2013-02-17 23:22:00,74.0,52.0,-100.00,South,187,11.0,24.0,46,0.00,,,0.00,0.000000,,2013-02-18 09:22:00,
2013-02-17 23:42:00,74.0,54.0,-100.00,SE,139,13.0,41.0,50,0.00,,,0.00,0.000000,,2013-02-18 09:42:00,
2013-02-17 23:52:00,74.0,54.0,-100.00,SE,139,13.0,41.0,50,0.00,,,0.00,0.000000,,2013-02-18 09:52:00,